星链-4727 (STARLINK-4727 )

导读 | 豆包AI

STARLINK-4727是美国太空探索技术公司(SpaceX)星链卫星互联网项目的卫星,于2022年9月11日发射升空,属于星链低轨卫星组网的组成部分,运行于近地轨道,服务全球高速互联网接入需求,星链系统通过大规模低轨卫星组网,为全球不同地区提供卫星宽带互联网服务。

基本信息
目录编号:
53803
目录名称:
STARLINK-4727
国际标识:
2022-111AG
轨道中心:
EARTH
卫星名称:
星链-4727
卫星全名:
星链-4727 (STARLINK-4727 )
卫星状态:
在轨 (已飞行1327 天)
发射日期:
2022-09-11 UTC
国别 :
美国 (US)
星等 :
--
轨道信息
数据来源 国际轨道数据
星历时间: 2026-04-30T11:24:16+0800
13小时前
查看轨道信息
半长轴: 6918.003km
偏心率: 0.0001275
轨道倾角: 53.219°
近地点辐角 194.361°
升交点赤经 18.186°
平近点角 165.735°
近地点: 538.983km
远地点: 540.749km
周期: 95.440分钟
每日圈数: 15.088
详细信息
固有亮度:
5
最大亮度:
2.5
卫星平台:
Starlink v1.5
覆盖范围:
全球
运营商:
太空探索技术公司
运营商所在国:
美国
制造商(研发单位):
太空探索技术公司
制造商所在国:
美国
使用方式:
暂无
卫星简介
星链(Starlink)计划是由太空探索技术公司(SpaceX)提出的一个巨型低轨卫星互联网星座项目,计划在2019年至2024年间在太空搭建由约1.2万颗卫星组成的“星链”网络,其中1584颗将部署在地球上空550千米处的近地轨道,并从2020年开始工作。该卫星仍在工作。
2D轨道图
3D轨道图
轨道高度分析图
轨道倾角分析图
轨道综合分析图
查看轨道综合分析图